278  
ASUS44 KEWX 242011  
RWRTX  
SOUTH TEXAS REGIONAL WEATHER ROUNDUP  
NATIONAL WEATHER SERVICE AUSTIN/SAN ANTONIO TX  
300 PM CDT SUN JUL 24 2016  
 
NOTE: "FAIR" INDICATED FEW OR NO CLOUDS BELOW 12,000 FEET WITH NO  
SIGNIFICANT WEATHER AND/OR S TO VISIBILITY
.  
 
* - THESE STATIONS ARE NOT NWS OR FAA STATIONS...AND ARE NOT SUBJECT  
TO NWS AND FAA QUALITY CONTROL.
 
 
TXZ171-172-183>190-242100-  
TEXAS HILL COUNTRY AND EDWARDS PLATEAU  
 
CITY SKY/WX TMP DP RH WIND PRES REMARKS
 
JUNCTION MOSUNNY 98 62 30 VRB6 29.94F HX 99  
*LLANO MOSUNNY 100 66 32 SE9 29.95F HX 104  
BURNET SUNNY 97 62 31 S9 29.96F HX 98  
*HORSESHOE BAY SUNNY 98 64 32 SE3 29.93F HX 100  
*KERRVILLE SUNNY 97 68 38 S3 29.96F HX 101  
*FREDERICKSBRG SUNNY 96 59 29 SE10 29.97S HX 95  
*ROCKSPRINGS PTSUNNY 95 63 34 E5 30.00F HX 96  
*BOERNE STAGE SUNNY 91 66 43 SE8 29.96F HX 94  
*CASTROVILLE SUNNY 99 63 30 SE9 29.92F HX 100  
HONDO SUNNY 97 67 37 SE12G20 29.93F HX 101  
*UVALDE SUNNY 97 68 38 SE6 29.91F HX 102  
DEL RIO MOSUNNY 101 65 30 MISG 29.87F HX 104  
LAUGHLIN AFB MOSUNNY 100 64 30 SE16 29.87F HX 103  
CARRIZO SPRGS PTSUNNY 99 68 36 SE5 29.86F HX 104  
*EAGLE PASS PTCLDY 100 66 32 SE13G21 29.87F HX 104  

 
 
TXZ173-191>194-202-209-217>225-228-242100-  
CENTRAL AND SOUTH CENTRAL TEXAS  
 
CITY SKY/WX TMP DP RH WIND PRES REMARKS
 
GEORGETOWN MOSUNNY 97 66 36 E7 29.93F HX 100  
AUSTIN/BERGSTM PTSUNNY 98 69 38 SE12 29.91F HX 104  
AUSTIN/MABRY MOSUNNY 99 70 38 VRB7 29.93F HX 106  
*AUSTIN/EXEC N/A 95 70 43 SE5 29.93F HX 101  
*LAGO VISTA SUNNY 97 64 33 CALM 29.96F HX 99  
SAN MARCOS MOSUNNY 97 70 41 E6 29.94F HX 103  
NEW BRAUNFELS MOSUNNY 97 67 37 SE9 29.91F HX 101  
RANDOLPH AFB MOSUNNY 97 68 38 SE10 29.92F HX 101  
PT SAN ANTONIO MOSUNNY 97 67 37 SE14 29.89F HX 102  
SAN ANTONIO MOSUNNY 97 68 38 S13 29.92F HX 102  
STINSON FIELD SUNNY 101 66 31 E10G18 29.89F HX 105  
*PLEASANTON MOSUNNY 99 64 31 SE6G16 29.89F HX 102  
*LA GRANGE N/A 97 73 45 SE6 29.90F HX 106  
*GIDDINGS MOSUNNY 94 68 42 S8 29.96F HX 98  
*GONZALES MOSUNNY 99 72 41 E7 29.90F HX 107  

 
 
TXZ163>164-176>182-195>201-210>213-226-227-235-242100-  
SOUTHEAST TEXAS  
 
CITY SKY/WX TMP DP RH WIND PRES REMARKS
 
COLLEGE STN MOSUNNY 97 69 40 VRB5 29.92F HX 103  
*BRYAN SUNNY 99 70 39 S8 29.93F HX 106  
*CALDWELL MOSUNNY 95 64 36 CALM 29.95F HX 97  
*CROCKETT SUNNY 97 70 41 S5 29.95F HX 103  
*BRENHAM MOSUNNY 98 71 41 SE5 29.92F HX 105  
HUNTSVILLE PTSUNNY 97 68 38 SE6 29.93F HX 102  
CONROE MOSUNNY 98 68 37 S6 29.92F HX 103  
HOUSTON BUSH MOSUNNY 98 70 40 VRB6 29.91F HX 105  
HOUSTON HOBBY PTSUNNY 96 75 50 S8 29.91F HX 108  
*HOUSTON SW AP MOSUNNY 96 75 51 SE7 29.92F HX 108  
PEARLAND MOSUNNY 95 74 50 VRB7 29.93F HX 105  
HOUSTON HOOKS MOSUNNY 97 73 45 VRB6 29.92F HX 107  
ELLINGTON FLD PTSUNNY 95 72 46 SE8 29.94F HX 103  
SUGAR LAND PTSUNNY 96 70 42 S5 29.91F HX 102  
*HOUSTON EXEC PTSUNNY 97 72 44 SW5 29.92F HX 105  
*CLEVELAND MUN NOT AVBL  
*WHARTON SUNNY 98 70 40 SE9G16 29.91F HX 105  
*COLUMBUS FAIR 97 71 42 SE7 29.91F HX 104  
*EAGLE LAKE PTCLDY 96 71 45 SE5 29.91F HX 103  

 
 
TXZ214>216-236>238-242100-  
THE UPPER TEXAS COAST  
 
CITY SKY/WX TMP DP RH WIND PRES REMARKS
 
*ORANGE MOSUNNY 94 71 47 SE3 29.94F HX 101  
PORT ARTHUR PTSUNNY 95 76 53 S5 29.92F HX 108  
GALVESTON SUNNY 90 78 68 S12 29.94F HX 104  
ANGLETON SUNNY 95 77 55 S6 29.93F HX 109  
*BAY CITY MOSUNNY 94 77 56 S8 29.93F HX 108  
PALACIOS SUNNY 92 77 61 S14 29.93F HX 105  

 
 
TXZ229>234-239>247-242100-  
TEXAS COASTAL BEND AND RIO GRANDE PLAINS  
 
CITY SKY/WX TMP DP RH WIND PRES REMARKS
 
VICTORIA PTSUNNY 97 69 40 S17 29.91F HX 103  
*BEEVILLE MOSUNNY 96 73 46 E13G18 29.90F HX 105  
ROCKPORT SUNNY 93 76 57 SE14 29.92F HX 105  
*PORT ARANSAS SUNNY 90 78 67 SE13 29.93S HX 104  
*PORT LAVACA MOSUNNY 93 75 55 S10G21 29.92F HX 104  
*INGLESIDE SUNNY 94 76 56 SE13G22 29.92S HX 108  
CORPUS CHRISTI PTSUNNY 93 74 53 SE14G22 29.90F HX 103  
CORPUS NAS SUNNY 92 79 65 SE16 29.92F HX 108  
*ROBSTOWN MOSUNNY 97 73 45 SE13G18 29.89F HX 107  
ALICE MOSUNNY 97 70 41 SE12 29.86F HX 103  
KINGSVILLE NAS MOSUNNY 98 78 52 E14G24 29.87F HX 115  
COTULLA MOSUNNY 102 64 28 MISG 29.86F HX 105  
*FAITH RANCH MOSUNNY 104 64 27 E10G16 29.86F HX 107  
LAREDO MOSUNNY 103 68 32 S10 29.85F HX 109  

 
 
TXZ248>255-242100-  
DEEP SOUTH TEXAS  
 
CITY SKY/WX TMP DP RH WIND PRES REMARKS
 
BROWNSVILLE MOSUNNY 95 75 52 SE16G24 29.89F HX 107  
PORT ISABEL MOSUNNY 96 76 52 SE20G26 29.89F HX 109  
*SOUTH PADRE N/A 91 79 66 S14G20 29.91F HX 107  
HARLINGEN N/A N/A N/A N/A MISG 29.87F  
*HEBBRONVILLE PTSUNNY 100 62 28 SE12G20 29.88F HX 101  
MCALLEN MOSUNNY 103 70 34 SE16G25 29.86F HX 111  
*WESLACO MOSUNNY 94 -5 2 S14G21 29.86F  
FALFURRIAS PTSUNNY 102 67 31 SE12 29.85F HX 107  
EDINBURG MOSUNNY 102 65 30 SE15G24 29.86F HX 105  
*ZAPATA MOSUNNY 102 61 25 E12G20 29.84F HX 103  

 
 
TXZ213>215-236>238-242>244-246-247-251-254-255-242100-  
CMAN STATIONS  
 
STATION/POSITION TIME TEMP WIND PRES WAVE
 
AIR SEA DIR/SP/G HT/PER  
(UTC) (F) (DEG/KT/KT) (MB) (FT/S)  
SABINE PASS 1900 88 90 150/ 3/ 6 1015.9  
SEA RIM ST PARK 1900 86 160/ 5/ 6 1015.0  
NORTH JETTY/GLS 1900 88 89 N/A  
EAGLE POINT 1900 87 84 150/ 6/ 8 1014.3  
MORGANS POINT 1900 90 89 130/ 7/ 10 1014.1  
MISSION/ARANSAS 1900 87 1014.0  
PORT ARANSAS 1900 85 89 140/ 14/ 15 1013.8  
MALAQUITE BEACH 1900 85 89 120/ 15/ 17 1013.7  
BAFFIN BAY 1900 87 90 130/ 12/ 16 1013.4  
PORT ISABEL 1900 88 88 150/ 11/ 17 1013.3  

 
 
GMZ080-GMZ150>470-242100-  
OFFSHORE BUOY REPORTS  
 
STATION/POSITION TIME TEMP WIND PRES WAVE
 
AIR SEA DIR/SP/G HT/PER  
(UTC) (F) (DEG/KT/KT) (MB) (FT/S)  
20 E GALVESTON 1950 87 92 190/ 4/ 6 1014.0 2/ 4  
90 E PT ARANSAS 1950 86 87 180/ 8/ 10 1013.9 2/ 5  
35 NE PT MANSFLD 1950 85 85 160/ 12/ 14 1012.8 2/ 5  
200 E PT ISABEL 1950 86 87 200/ 8/ 12 1014.4 1/ 4  

 
 
 
CLICK HERE TO GO TO PREVIOUS BULLETINS.

The Nexlab TX Page Main Text Page